Year,Month,Day,Hour,Minute,Value (Times are PST for windspeed in km/hr)
2019,04,06,00,00,12.00
2019,04,06,00,01,9.70
2019,04,06,00,02,10.80
2019,04,06,00,03,8.90
2019,04,06,00,04,9.20
2019,04,06,00,05,10.20
2019,04,06,00,06,16.20
2019,04,06,00,07,11.40
2019,04,06,00,08,7.30
2019,04,06,00,09,10.30
2019,04,06,00,10,6.10
2019,04,06,00,11,10.60
2019,04,06,00,12,8.70
2019,04,06,00,13,8.40
2019,04,06,00,14,8.90
2019,04,06,00,15,18.40
2019,04,06,00,16,13.10
2019,04,06,00,17,12.00
2019,04,06,00,18,14.10
2019,04,06,00,19,9.60
2019,04,06,00,20,7.20
2019,04,06,00,21,11.40
2019,04,06,00,22,7.70
2019,04,06,00,23,8.50
2019,04,06,00,24,11.50
2019,04,06,00,25,14.40
2019,04,06,00,26,18.00
2019,04,06,00,27,15.10
2019,04,06,00,28,18.50
2019,04,06,00,29,17.00
2019,04,06,00,30,8.20
2019,04,06,00,31,10.00
2019,04,06,00,32,12.00
2019,04,06,00,33,9.30
2019,04,06,00,34,8.90
2019,04,06,00,35,7.30
2019,04,06,00,36,8.10
2019,04,06,00,37,13.10
2019,04,06,00,38,9.20
2019,04,06,00,39,14.30
2019,04,06,00,40,17.20
2019,04,06,00,41,14.40
2019,04,06,00,42,12.90
2019,04,06,00,43,9.70
2019,04,06,00,44,14.80
2019,04,06,00,45,13.80
2019,04,06,00,46,8.60
2019,04,06,00,47,10.70
2019,04,06,00,48,6.70
2019,04,06,00,49,13.10
2019,04,06,00,50,12.30
2019,04,06,00,51,12.10
2019,04,06,00,52,4.70
2019,04,06,00,53,13.80
2019,04,06,00,54,11.30
2019,04,06,00,55,8.60
2019,04,06,00,56,10.80
2019,04,06,00,57,8.60
2019,04,06,00,58,6.90
2019,04,06,00,59,12.30
2019,04,06,01,00,15.10
2019,04,06,01,01,16.40
2019,04,06,01,02,13.20
2019,04,06,01,03,15.10
2019,04,06,01,04,14.50
2019,04,06,01,05,9.50
2019,04,06,01,06,7.00
2019,04,06,01,07,8.90
2019,04,06,01,08,11.80
2019,04,06,01,09,11.10
2019,04,06,01,10,11.60
2019,04,06,01,11,9.50
2019,04,06,01,12,11.50
2019,04,06,01,13,10.70
2019,04,06,01,14,10.60
2019,04,06,01,15,8.50
2019,04,06,01,16,8.20
2019,04,06,01,17,11.50
2019,04,06,01,18,6.10
2019,04,06,01,19,7.00
2019,04,06,01,20,3.80
2019,04,06,01,21,6.30
2019,04,06,01,22,7.00
2019,04,06,01,23,13.60
2019,04,06,01,24,10.00
2019,04,06,01,25,10.00
2019,04,06,01,26,8.30
2019,04,06,01,27,5.90
2019,04,06,01,28,4.80
2019,04,06,01,29,7.60
2019,04,06,01,30,7.60
2019,04,06,01,31,6.00
2019,04,06,01,32,6.50
2019,04,06,01,33,1.60
2019,04,06,01,34,3.60
2019,04,06,01,35,0.40
2019,04,06,01,36,2.30
2019,04,06,01,37,3.00
2019,04,06,01,38,2.60
2019,04,06,01,39,6.40
2019,04,06,01,40,4.70
2019,04,06,01,41,2.90
2019,04,06,01,42,2.90
2019,04,06,01,43,2.70
2019,04,06,01,44,4.10
2019,04,06,01,45,6.80
2019,04,06,01,46,2.40
2019,04,06,01,47,8.20
2019,04,06,01,48,1.50
2019,04,06,01,49,1.10
2019,04,06,01,50,0.50
2019,04,06,01,51,6.90
2019,04,06,01,52,5.10
2019,04,06,01,53,6.10
2019,04,06,01,54,4.40
2019,04,06,01,55,2.00
2019,04,06,01,56,1.70
2019,04,06,01,57,3.30
2019,04,06,01,58,3.50
2019,04,06,01,59,4.00
2019,04,06,02,00,3.40
2019,04,06,02,01,4.30
2019,04,06,02,02,3.20
2019,04,06,02,03,3.70
2019,04,06,02,04,5.80
2019,04,06,02,05,4.20
2019,04,06,02,06,3.00
2019,04,06,02,07,3.70
2019,04,06,02,08,0.80
2019,04,06,02,09,1.50
2019,04,06,02,10,4.60
2019,04,06,02,11,5.50
2019,04,06,02,12,5.20
2019,04,06,02,13,2.30
2019,04,06,02,14,0.50
2019,04,06,02,15,1.20
2019,04,06,02,16,1.00
2019,04,06,02,17,2.60
2019,04,06,02,18,4.40
2019,04,06,02,19,4.30
2019,04,06,02,20,0.20
2019,04,06,02,21,3.90
2019,04,06,02,22,4.50
2019,04,06,02,23,6.00
2019,04,06,02,24,4.30
2019,04,06,02,25,5.10
2019,04,06,02,26,5.80
2019,04,06,02,27,2.00
2019,04,06,02,28,4.40
2019,04,06,02,29,7.30
2019,04,06,02,30,7.70
2019,04,06,02,31,3.30
2019,04,06,02,32,5.00
2019,04,06,02,33,3.60
2019,04,06,02,34,6.00
2019,04,06,02,35,5.80
2019,04,06,02,36,5.50
2019,04,06,02,37,4.20
2019,04,06,02,38,3.90
2019,04,06,02,39,4.70
2019,04,06,02,40,7.90
2019,04,06,02,41,5.70
2019,04,06,02,42,0.70
2019,04,06,02,43,3.00
2019,04,06,02,44,8.30
2019,04,06,02,45,7.70
2019,04,06,02,46,10.10
2019,04,06,02,47,5.30
2019,04,06,02,48,6.50
2019,04,06,02,49,8.30
2019,04,06,02,50,3.30
2019,04,06,02,51,6.90
2019,04,06,02,52,6.00
2019,04,06,02,53,4.10
2019,04,06,02,54,2.10
2019,04,06,02,55,5.00
2019,04,06,02,56,8.00
2019,04,06,02,57,3.50
2019,04,06,02,58,2.10
2019,04,06,02,59,4.50
2019,04,06,03,00,1.50
2019,04,06,03,01,6.60
2019,04,06,03,02,9.10
2019,04,06,03,03,4.80
2019,04,06,03,04,2.10
2019,04,06,03,05,5.30
2019,04,06,03,06,4.60
2019,04,06,03,07,3.80
2019,04,06,03,08,5.20
2019,04,06,03,09,3.70
2019,04,06,03,10,3.50
2019,04,06,03,11,3.70
2019,04,06,03,12,3.70
2019,04,06,03,13,5.70
2019,04,06,03,14,4.30
2019,04,06,03,15,4.90
2019,04,06,03,16,5.50
2019,04,06,03,17,1.30
2019,04,06,03,18,2.30
2019,04,06,03,19,1.90
2019,04,06,03,20,3.60
2019,04,06,03,21,5.30
2019,04,06,03,22,6.00
2019,04,06,03,23,3.80
2019,04,06,03,24,3.70
2019,04,06,03,25,5.80
2019,04,06,03,26,3.90
2019,04,06,03,27,6.50
2019,04,06,03,28,5.50
2019,04,06,03,29,1.60
2019,04,06,03,30,3.00
2019,04,06,03,31,2.40
2019,04,06,03,32,2.30
2019,04,06,03,33,4.20
2019,04,06,03,34,4.20
2019,04,06,03,35,5.20
2019,04,06,03,36,7.90
2019,04,06,03,37,3.60
2019,04,06,03,38,4.60
2019,04,06,03,39,3.10
2019,04,06,03,40,2.80
2019,04,06,03,41,6.10
2019,04,06,03,42,2.60
2019,04,06,03,43,4.20
2019,04,06,03,44,5.00
2019,04,06,03,45,4.80
2019,04,06,03,46,0.40
2019,04,06,03,47,1.30
2019,04,06,03,48,4.10
2019,04,06,03,49,6.00
2019,04,06,03,50,4.70
2019,04,06,03,51,2.80
2019,04,06,03,52,3.90
2019,04,06,03,53,6.00
2019,04,06,03,54,4.50
2019,04,06,03,55,3.50
2019,04,06,03,56,4.80
2019,04,06,03,57,8.30
2019,04,06,03,58,3.00
2019,04,06,03,59,7.30
2019,04,06,04,00,10.30
2019,04,06,04,01,6.90
2019,04,06,04,02,2.60
2019,04,06,04,03,3.30
2019,04,06,04,04,11.30
2019,04,06,04,05,6.20
2019,04,06,04,06,3.70
2019,04,06,04,07,3.40
2019,04,06,04,08,6.50
2019,04,06,04,09,3.80
2019,04,06,04,10,4.80
2019,04,06,04,11,4.60
2019,04,06,04,12,7.60
2019,04,06,04,13,7.80
2019,04,06,04,14,3.90
2019,04,06,04,15,3.00
2019,04,06,04,16,5.00
2019,04,06,04,17,8.00
2019,04,06,04,18,6.90
2019,04,06,04,19,5.70
2019,04,06,04,20,9.70
2019,04,06,04,21,10.90
2019,04,06,04,22,11.70
2019,04,06,04,23,14.10
2019,04,06,04,24,21.50
2019,04,06,04,25,12.20
2019,04,06,04,26,11.90
2019,04,06,04,27,14.10
2019,04,06,04,28,8.80
2019,04,06,04,29,14.50
2019,04,06,04,30,9.70
2019,04,06,04,31,17.90
2019,04,06,04,32,15.90
2019,04,06,04,33,12.60
2019,04,06,04,34,11.10
2019,04,06,04,35,16.60
2019,04,06,04,36,14.30
2019,04,06,04,37,5.90
2019,04,06,04,38,11.40
2019,04,06,04,39,11.90
2019,04,06,04,40,10.90
2019,04,06,04,41,9.50
2019,04,06,04,42,17.60
2019,04,06,04,43,12.10
2019,04,06,04,44,12.00
2019,04,06,04,45,10.40
2019,04,06,04,46,13.50
2019,04,06,04,47,27.20
2019,04,06,04,48,20.20
2019,04,06,04,49,27.40
2019,04,06,04,50,17.50
2019,04,06,04,51,21.90
2019,04,06,04,52,26.60
2019,04,06,04,53,19.00
2019,04,06,04,54,27.00
2019,04,06,04,55,31.30
2019,04,06,04,56,31.20
2019,04,06,04,57,31.70
2019,04,06,04,58,25.40
2019,04,06,04,59,23.10
2019,04,06,05,00,23.40
2019,04,06,05,01,29.40
2019,04,06,05,02,24.00
2019,04,06,05,03,26.40
2019,04,06,05,04,26.00
2019,04,06,05,05,25.00
2019,04,06,05,06,26.20
2019,04,06,05,07,22.90
2019,04,06,05,08,22.30
2019,04,06,05,09,18.90
2019,04,06,05,10,24.30
2019,04,06,05,11,18.60
2019,04,06,05,12,22.50
2019,04,06,05,13,18.40
2019,04,06,05,14,21.20
2019,04,06,05,15,26.00
2019,04,06,05,16,22.00
2019,04,06,05,17,20.00
2019,04,06,05,18,20.30
2019,04,06,05,19,18.80
2019,04,06,05,20,22.60
2019,04,06,05,21,22.30
2019,04,06,05,22,19.20
2019,04,06,05,23,19.40
2019,04,06,05,24,19.70
2019,04,06,05,25,22.90
2019,04,06,05,26,25.40
2019,04,06,05,27,22.50
2019,04,06,05,28,17.50
2019,04,06,05,29,20.60
2019,04,06,05,30,20.60
2019,04,06,05,31,19.90
2019,04,06,05,32,23.70
2019,04,06,05,33,21.80
2019,04,06,05,34,22.20
2019,04,06,05,35,22.80
2019,04,06,05,36,22.90
2019,04,06,05,37,22.60
2019,04,06,05,38,22.40
2019,04,06,05,39,25.30
2019,04,06,05,40,21.50
2019,04,06,05,41,20.90
2019,04,06,05,42,16.60
2019,04,06,05,43,18.90
2019,04,06,05,44,20.70
2019,04,06,05,45,20.70
2019,04,06,05,46,19.80
2019,04,06,05,47,23.10
2019,04,06,05,48,24.10
2019,04,06,05,49,25.60
2019,04,06,05,50,16.80
2019,04,06,05,51,17.30
2019,04,06,05,52,17.00
2019,04,06,05,53,25.90
2019,04,06,05,54,28.20
2019,04,06,05,55,20.30
2019,04,06,05,56,23.30
2019,04,06,05,57,19.80
2019,04,06,05,58,25.60
2019,04,06,05,59,24.40
2019,04,06,06,00,21.10
2019,04,06,06,01,25.00
2019,04,06,06,02,21.30
2019,04,06,06,03,24.30
2019,04,06,06,04,24.60
2019,04,06,06,05,28.70
2019,04,06,06,06,23.20
2019,04,06,06,07,29.80
2019,04,06,06,08,24.20
2019,04,06,06,09,23.80
2019,04,06,06,10,22.40
2019,04,06,06,11,24.80
2019,04,06,06,12,29.30
2019,04,06,06,13,26.50
2019,04,06,06,14,25.00
2019,04,06,06,15,23.20
2019,04,06,06,16,27.20
2019,04,06,06,17,27.50
2019,04,06,06,18,26.30
2019,04,06,06,19,27.70
2019,04,06,06,20,25.60
2019,04,06,06,21,21.40
2019,04,06,06,22,25.40
2019,04,06,06,23,22.30
2019,04,06,06,24,29.90
2019,04,06,06,25,26.20
2019,04,06,06,26,29.40
2019,04,06,06,27,27.90
2019,04,06,06,28,28.20
2019,04,06,06,29,35.90
2019,04,06,06,30,30.60
2019,04,06,06,31,30.00
2019,04,06,06,32,30.70
2019,04,06,06,33,31.30
2019,04,06,06,34,29.40
2019,04,06,06,35,25.80
2019,04,06,06,36,24.10
2019,04,06,06,37,30.30
2019,04,06,06,38,28.10
2019,04,06,06,39,34.30
2019,04,06,06,40,32.40
2019,04,06,06,41,23.50
2019,04,06,06,42,30.00
2019,04,06,06,43,24.10
2019,04,06,06,44,29.20
2019,04,06,06,45,29.40
2019,04,06,06,46,33.00
2019,04,06,06,47,29.60
2019,04,06,06,48,25.90
2019,04,06,06,49,25.70
2019,04,06,06,50,28.50
2019,04,06,06,51,24.30
2019,04,06,06,52,26.80
2019,04,06,06,53,25.20
2019,04,06,06,54,22.60
2019,04,06,06,55,34.00
2019,04,06,06,56,33.90
2019,04,06,06,57,29.40
2019,04,06,06,58,32.40
2019,04,06,06,59,24.90
2019,04,06,07,00,31.10
2019,04,06,07,01,28.40
2019,04,06,07,02,28.80
2019,04,06,07,03,31.80
2019,04,06,07,04,28.70
2019,04,06,07,05,29.10
2019,04,06,07,06,38.60
2019,04,06,07,07,34.20
2019,04,06,07,08,30.00
2019,04,06,07,09,33.40
2019,04,06,07,10,34.50
2019,04,06,07,11,37.30
2019,04,06,07,12,33.80
2019,04,06,07,13,25.00
2019,04,06,07,14,31.50
2019,04,06,07,15,33.80
2019,04,06,07,16,39.20
2019,04,06,07,17,30.60
2019,04,06,07,18,28.20
2019,04,06,07,19,37.00
2019,04,06,07,20,33.10
2019,04,06,07,21,34.80
2019,04,06,07,22,29.10
2019,04,06,07,23,32.10
2019,04,06,07,24,39.80
2019,04,06,07,25,36.70
2019,04,06,07,26,30.60
2019,04,06,07,27,31.10
2019,04,06,07,28,31.20
2019,04,06,07,29,29.40
2019,04,06,07,30,27.80
2019,04,06,07,31,32.10
2019,04,06,07,32,27.20
2019,04,06,07,33,29.90
2019,04,06,07,34,27.20
2019,04,06,07,35,30.10
2019,04,06,07,36,26.90
2019,04,06,07,37,28.40
2019,04,06,07,38,29.60
2019,04,06,07,39,26.80
2019,04,06,07,40,35.80
2019,04,06,07,41,25.90
2019,04,06,07,42,36.90
2019,04,06,07,43,28.30
2019,04,06,07,44,33.90
2019,04,06,07,45,41.20
2019,04,06,07,46,28.30
2019,04,06,07,47,28.80
2019,04,06,07,48,30.60
2019,04,06,07,49,33.90
2019,04,06,07,50,36.90
2019,04,06,07,51,27.10
2019,04,06,07,52,27.70
2019,04,06,07,53,27.90
2019,04,06,07,54,31.20
2019,04,06,07,55,33.90
2019,04,06,07,56,28.60
2019,04,06,07,57,22.00
2019,04,06,07,58,24.70
2019,04,06,07,59,20.60
2019,04,06,08,00,18.50
2019,04,06,08,01,17.60
2019,04,06,08,02,15.90
2019,04,06,08,03,26.00
2019,04,06,08,04,25.50
2019,04,06,08,05,26.60
2019,04,06,08,06,25.40
2019,04,06,08,07,23.50
2019,04,06,08,08,31.20
2019,04,06,08,09,23.50
2019,04,06,08,10,30.60
2019,04,06,08,11,26.20
2019,04,06,08,12,23.80
2019,04,06,08,13,27.70
2019,04,06,08,14,30.30
2019,04,06,08,15,29.30
2019,04,06,08,16,26.60
2019,04,06,08,17,28.60
2019,04,06,08,18,34.20
2019,04,06,08,19,29.50
2019,04,06,08,20,29.00
2019,04,06,08,21,34.40
2019,04,06,08,22,32.30
2019,04,06,08,23,30.70
2019,04,06,08,24,38.20
2019,04,06,08,25,29.90
2019,04,06,08,26,32.10
2019,04,06,08,27,28.90
2019,04,06,08,28,29.40
2019,04,06,08,29,31.20
2019,04,06,08,30,38.00
2019,04,06,08,31,33.50
2019,04,06,08,32,34.60
2019,04,06,08,33,36.70
2019,04,06,08,34,42.30
2019,04,06,08,35,30.70
2019,04,06,08,36,33.60
2019,04,06,08,37,31.60
2019,04,06,08,38,36.40
2019,04,06,08,39,24.80
2019,04,06,08,40,34.20
2019,04,06,08,41,33.30
2019,04,06,08,42,36.10
2019,04,06,08,43,33.50
2019,04,06,08,44,39.50
2019,04,06,08,45,29.90
2019,04,06,08,46,32.10
2019,04,06,08,47,36.00
2019,04,06,08,48,28.70
2019,04,06,08,49,33.00
2019,04,06,08,50,26.10
2019,04,06,08,51,31.40
2019,04,06,08,52,32.10
2019,04,06,08,53,32.10
2019,04,06,08,54,30.70
2019,04,06,08,55,32.40
2019,04,06,08,56,30.30
2019,04,06,08,57,31.20
2019,04,06,08,58,29.90
2019,04,06,08,59,29.80
2019,04,06,09,00,28.30
2019,04,06,09,01,28.80
2019,04,06,09,02,29.10
2019,04,06,09,03,29.10
2019,04,06,09,04,31.70
2019,04,06,09,05,21.90
2019,04,06,09,06,24.00
2019,04,06,09,07,28.30
2019,04,06,09,08,27.50
2019,04,06,09,09,22.10
2019,04,06,09,10,25.10
2019,04,06,09,11,26.30
2019,04,06,09,12,28.80
2019,04,06,09,13,36.20
2019,04,06,09,14,32.80
2019,04,06,09,15,27.80
2019,04,06,09,16,28.00
2019,04,06,09,17,26.80
2019,04,06,09,18,23.50
2019,04,06,09,19,30.60
2019,04,06,09,20,34.90
2019,04,06,09,21,31.10
2019,04,06,09,22,31.80
2019,04,06,09,23,35.50
2019,04,06,09,24,29.40
2019,04,06,09,25,28.50
2019,04,06,09,26,27.50
2019,04,06,09,27,26.40
2019,04,06,09,28,23.10
2019,04,06,09,29,24.40
2019,04,06,09,30,23.80
2019,04,06,09,31,31.50
2019,04,06,09,32,26.60
2019,04,06,09,33,31.20
2019,04,06,09,34,21.50
2019,04,06,09,35,28.70
2019,04,06,09,36,36.70
2019,04,06,09,37,35.90
2019,04,06,09,38,28.70
2019,04,06,09,39,22.40
2019,04,06,09,40,25.70
2019,04,06,09,41,38.10
2019,04,06,09,42,28.30
2019,04,06,09,43,30.90
2019,04,06,09,44,34.70
2019,04,06,09,45,36.10
2019,04,06,09,46,29.90
2019,04,06,09,47,34.50
2019,04,06,09,48,41.60
2019,04,06,09,49,35.10
2019,04,06,09,50,36.40
2019,04,06,09,51,34.40
2019,04,06,09,52,33.30
2019,04,06,09,53,35.00
2019,04,06,09,54,31.30
2019,04,06,09,55,33.50
2019,04,06,09,56,27.60
2019,04,06,09,57,24.60
2019,04,06,09,58,28.40
2019,04,06,09,59,26.10
2019,04,06,10,00,32.40
2019,04,06,10,01,30.80
2019,04,06,10,02,27.50
2019,04,06,10,03,31.90
2019,04,06,10,04,37.40
2019,04,06,10,05,36.00
2019,04,06,10,06,40.30
2019,04,06,10,07,31.30
2019,04,06,10,08,33.70
2019,04,06,10,09,34.90
2019,04,06,10,10,34.70
2019,04,06,10,11,48.90
2019,04,06,10,12,38.70
2019,04,06,10,13,29.20
2019,04,06,10,14,46.10
2019,04,06,10,15,37.00
2019,04,06,10,16,50.90
2019,04,06,10,17,50.50
2019,04,06,10,18,40.40
2019,04,06,10,19,41.40
2019,04,06,10,20,41.60
2019,04,06,10,21,47.40
2019,04,06,10,22,48.00
2019,04,06,10,23,49.30
2019,04,06,10,24,41.50
2019,04,06,10,25,45.10
2019,04,06,10,26,44.80
2019,04,06,10,27,42.20
2019,04,06,10,28,49.50
2019,04,06,10,29,46.90
2019,04,06,10,30,44.50
2019,04,06,10,31,43.20
2019,04,06,10,32,43.80
2019,04,06,10,33,43.00
2019,04,06,10,34,32.60
2019,04,06,10,35,40.00
2019,04,06,10,36,48.60
2019,04,06,10,37,49.00
2019,04,06,10,38,40.40
2019,04,06,10,39,49.40
2019,04,06,10,40,49.00
2019,04,06,10,41,45.70
2019,04,06,10,42,47.50
2019,04,06,10,43,45.10
2019,04,06,10,44,47.60
2019,04,06,10,45,45.60
2019,04,06,10,46,46.80
2019,04,06,10,47,52.00
2019,04,06,10,48,53.80
2019,04,06,10,49,55.20
2019,04,06,10,50,44.70
2019,04,06,10,51,54.30
2019,04,06,10,52,49.50
2019,04,06,10,53,40.30
2019,04,06,10,54,35.40
2019,04,06,10,55,38.70
2019,04,06,10,56,47.90
2019,04,06,10,57,45.50
2019,04,06,10,58,43.20
2019,04,06,10,59,41.70
2019,04,06,11,00,46.30
2019,04,06,11,01,46.60
2019,04,06,11,02,41.20
2019,04,06,11,03,47.30
2019,04,06,11,04,46.30
2019,04,06,11,05,48.60
2019,04,06,11,06,47.80
2019,04,06,11,07,45.30
2019,04,06,11,08,41.70
2019,04,06,11,09,40.00
2019,04,06,11,10,43.80
2019,04,06,11,11,50.40
2019,04,06,11,12,39.40
2019,04,06,11,13,40.80
2019,04,06,11,14,43.80
2019,04,06,11,15,39.60
2019,04,06,11,16,42.60
2019,04,06,11,17,41.00
2019,04,06,11,18,39.10
2019,04,06,11,19,37.00
2019,04,06,11,20,45.90
2019,04,06,11,21,48.60
2019,04,06,11,22,45.60
2019,04,06,11,23,49.00
2019,04,06,11,24,44.00
2019,04,06,11,25,37.90
2019,04,06,11,26,41.40
2019,04,06,11,27,38.00
2019,04,06,11,28,42.40
2019,04,06,11,29,44.80
2019,04,06,11,30,41.70
2019,04,06,11,31,43.50
2019,04,06,11,32,51.10
2019,04,06,11,33,41.50
2019,04,06,11,34,46.60
2019,04,06,11,35,47.10
2019,04,06,11,36,50.40
2019,04,06,11,37,50.00
2019,04,06,11,38,47.60
2019,04,06,11,39,53.90
2019,04,06,11,40,43.80
2019,04,06,11,41,46.40
2019,04,06,11,42,49.10
2019,04,06,11,43,58.50
2019,04,06,11,44,46.00
2019,04,06,11,45,48.90
2019,04,06,11,46,46.80
2019,04,06,11,47,39.60
2019,04,06,11,48,53.70
2019,04,06,11,49,49.80
2019,04,06,11,50,59.40
2019,04,06,11,51,58.10
2019,04,06,11,52,59.90
2019,04,06,11,53,48.80
2019,04,06,11,54,42.30
2019,04,06,11,55,44.40
2019,04,06,11,56,53.30
2019,04,06,11,57,45.60
2019,04,06,11,58,43.20
2019,04,06,11,59,46.20
2019,04,06,12,00,54.20
2019,04,06,12,01,54.80
2019,04,06,12,02,48.20
2019,04,06,12,03,48.90
2019,04,06,12,04,45.50
2019,04,06,12,05,44.80
2019,04,06,12,06,51.00
2019,04,06,12,07,52.90
2019,04,06,12,08,51.00
2019,04,06,12,09,54.30
2019,04,06,12,10,49.10
2019,04,06,12,11,51.60
2019,04,06,12,12,52.50
2019,04,06,12,13,50.10
2019,04,06,12,14,53.80
2019,04,06,12,15,50.20
2019,04,06,12,16,55.70
2019,04,06,12,17,46.20
2019,04,06,12,18,51.40
2019,04,06,12,19,41.00
2019,04,06,12,20,50.00
2019,04,06,12,21,50.40
2019,04,06,12,22,55.00
2019,04,06,12,23,54.70
2019,04,06,12,24,52.60
2019,04,06,12,25,54.50
2019,04,06,12,26,56.50
2019,04,06,12,27,51.30
2019,04,06,12,28,43.70
2019,04,06,12,29,48.40
2019,04,06,12,30,43.50
2019,04,06,12,31,44.20
2019,04,06,12,32,44.80
2019,04,06,12,33,51.70
2019,04,06,12,34,54.10
2019,04,06,12,35,52.90
2019,04,06,12,36,40.00
2019,04,06,12,37,45.80
2019,04,06,12,38,51.10
2019,04,06,12,39,46.20
2019,04,06,12,40,37.70
2019,04,06,12,41,42.70
2019,04,06,12,42,38.60
2019,04,06,12,43,35.90
2019,04,06,12,44,47.10
2019,04,06,12,45,44.20
2019,04,06,12,46,45.70
2019,04,06,12,47,34.70
2019,04,06,12,48,41.50
2019,04,06,12,49,48.00
2019,04,06,12,50,38.90
2019,04,06,12,51,51.80
2019,04,06,12,52,41.20
2019,04,06,12,53,39.30
2019,04,06,12,54,45.80
2019,04,06,12,55,40.40
2019,04,06,12,56,38.00
2019,04,06,12,57,42.90
2019,04,06,12,58,36.80
2019,04,06,12,59,34.50
2019,04,06,13,00,37.10
2019,04,06,13,01,37.90
2019,04,06,13,02,40.50
2019,04,06,13,03,43.10
2019,04,06,13,04,35.60
2019,04,06,13,05,39.60
2019,04,06,13,06,42.60
2019,04,06,13,07,41.70
2019,04,06,13,08,36.70
2019,04,06,13,09,35.30
2019,04,06,13,10,34.50
2019,04,06,13,11,44.70
2019,04,06,13,12,41.40
2019,04,06,13,13,38.10
2019,04,06,13,14,41.00
2019,04,06,13,15,37.80
2019,04,06,13,16,36.90
2019,04,06,13,17,33.80
2019,04,06,13,18,37.40
2019,04,06,13,19,47.40
2019,04,06,13,20,36.50
2019,04,06,13,21,40.10
2019,04,06,13,22,32.10
2019,04,06,13,23,46.90
2019,04,06,13,24,35.20
2019,04,06,13,25,38.00
2019,04,06,13,26,43.90
2019,04,06,13,27,42.90
2019,04,06,13,28,39.40
2019,04,06,13,29,43.40
2019,04,06,13,30,38.30
2019,04,06,13,31,41.50
2019,04,06,13,32,41.10
2019,04,06,13,33,46.10
2019,04,06,13,34,40.90
2019,04,06,13,35,49.10
2019,04,06,13,36,42.90
2019,04,06,13,37,33.70
2019,04,06,13,38,43.20
2019,04,06,13,39,45.30
2019,04,06,13,40,51.90
2019,04,06,13,41,49.60
2019,04,06,13,42,44.70
2019,04,06,13,43,44.20
2019,04,06,13,44,49.00
2019,04,06,13,45,42.60
2019,04,06,13,46,31.80
2019,04,06,13,47,47.40
2019,04,06,13,48,39.70
2019,04,06,13,49,33.00
2019,04,06,13,50,43.90
2019,04,06,13,51,34.30
2019,04,06,13,52,43.30
2019,04,06,13,53,42.90
2019,04,06,13,54,33.00
2019,04,06,13,55,42.50
2019,04,06,13,56,42.10
2019,04,06,13,57,47.70
2019,04,06,13,58,44.00
2019,04,06,13,59,37.10
2019,04,06,14,00,31.40
2019,04,06,14,01,41.40
2019,04,06,14,02,30.00
2019,04,06,14,03,44.30
2019,04,06,14,04,43.80
2019,04,06,14,05,42.20
2019,04,06,14,06,48.70
2019,04,06,14,07,44.50
2019,04,06,14,08,41.40
2019,04,06,14,09,47.90
2019,04,06,14,10,49.50
2019,04,06,14,11,37.50
2019,04,06,14,12,28.90
2019,04,06,14,13,47.20
2019,04,06,14,14,40.10
2019,04,06,14,15,46.90
2019,04,06,14,16,41.60
2019,04,06,14,17,47.30
2019,04,06,14,18,44.50
2019,04,06,14,19,30.30
2019,04,06,14,20,40.60
2019,04,06,14,21,38.00
2019,04,06,14,22,35.50
2019,04,06,14,23,38.30
2019,04,06,14,24,32.80
2019,04,06,14,25,36.10
2019,04,06,14,26,32.30
2019,04,06,14,27,39.70
2019,04,06,14,28,35.70
2019,04,06,14,29,41.00
2019,04,06,14,30,36.40
2019,04,06,14,31,35.50
2019,04,06,14,32,28.20
2019,04,06,14,33,30.50
2019,04,06,14,34,34.00
2019,04,06,14,35,34.30
2019,04,06,14,36,30.20
2019,04,06,14,37,28.50
2019,04,06,14,38,33.90
2019,04,06,14,39,37.40
2019,04,06,14,40,28.80
2019,04,06,14,41,30.90
2019,04,06,14,42,40.40
2019,04,06,14,43,31.70
2019,04,06,14,44,32.10
2019,04,06,14,45,37.40
2019,04,06,14,46,31.90
2019,04,06,14,47,39.70
2019,04,06,14,48,30.10
2019,04,06,14,49,26.00
2019,04,06,14,50,36.30
2019,04,06,14,51,32.40
2019,04,06,14,52,28.90
2019,04,06,14,53,26.40
2019,04,06,14,54,31.40
2019,04,06,14,55,35.50
2019,04,06,14,56,35.80
2019,04,06,14,57,36.20
2019,04,06,14,58,31.20
2019,04,06,14,59,38.40
2019,04,06,15,00,29.40
2019,04,06,15,01,30.40
2019,04,06,15,02,25.70
2019,04,06,15,03,32.10
2019,04,06,15,04,29.70
2019,04,06,15,05,30.00
2019,04,06,15,06,32.60
2019,04,06,15,07,29.70
2019,04,06,15,08,31.50
2019,04,06,15,09,31.90
2019,04,06,15,10,28.70
2019,04,06,15,11,29.50
2019,04,06,15,12,26.80
2019,04,06,15,13,26.90
2019,04,06,15,14,29.10
2019,04,06,15,15,30.50
2019,04,06,15,16,25.70
2019,04,06,15,17,24.10
2019,04,06,15,18,26.90
2019,04,06,15,19,24.10
2019,04,06,15,20,28.60
2019,04,06,15,21,29.70
2019,04,06,15,22,20.00
2019,04,06,15,23,26.20
2019,04,06,15,24,26.60
2019,04,06,15,25,24.90
2019,04,06,15,26,24.70
2019,04,06,15,27,20.90
2019,04,06,15,28,19.80
2019,04,06,15,29,21.50
2019,04,06,15,30,24.70
2019,04,06,15,31,20.20
2019,04,06,15,32,23.80
2019,04,06,15,33,29.90
2019,04,06,15,34,19.60
2019,04,06,15,35,17.80
2019,04,06,15,36,22.50
2019,04,06,15,37,19.80
2019,04,06,15,38,15.10
2019,04,06,15,39,19.80
2019,04,06,15,40,25.20
2019,04,06,15,41,18.70
2019,04,06,15,42,27.40
2019,04,06,15,43,22.70
2019,04,06,15,44,31.50
2019,04,06,15,45,28.60
2019,04,06,15,46,20.70
2019,04,06,15,47,23.10
2019,04,06,15,48,21.60
2019,04,06,15,49,24.50
2019,04,06,15,50,23.40
2019,04,06,15,51,24.40
2019,04,06,15,52,21.70
2019,04,06,15,53,29.40
2019,04,06,15,54,29.90
2019,04,06,15,55,20.30
2019,04,06,15,56,21.20
2019,04,06,15,57,25.40
2019,04,06,15,58,26.30
2019,04,06,15,59,20.40
2019,04,06,16,00,24.50
2019,04,06,16,01,22.10
2019,04,06,16,02,24.80
2019,04,06,16,03,25.40
2019,04,06,16,04,20.80
2019,04,06,16,05,23.10
2019,04,06,16,06,22.20
2019,04,06,16,07,24.90
2019,04,06,16,08,25.40
2019,04,06,16,09,29.10
2019,04,06,16,10,26.80
2019,04,06,16,11,32.30
2019,04,06,16,12,26.20
2019,04,06,16,13,30.60
2019,04,06,16,14,31.30
2019,04,06,16,15,40.40
2019,04,06,16,16,30.20
2019,04,06,16,17,27.80
2019,04,06,16,18,22.80
2019,04,06,16,19,36.40
2019,04,06,16,20,34.50
2019,04,06,16,21,27.50
2019,04,06,16,22,29.70
2019,04,06,16,23,26.90
2019,04,06,16,24,27.50
2019,04,06,16,25,32.70
2019,04,06,16,26,33.90
2019,04,06,16,27,27.70
2019,04,06,16,28,29.60
2019,04,06,16,29,29.80
2019,04,06,16,30,29.70
2019,04,06,16,31,31.90
2019,04,06,16,32,41.50
2019,04,06,16,33,34.50
2019,04,06,16,34,34.70
2019,04,06,16,35,29.20
2019,04,06,16,36,24.40
2019,04,06,16,37,33.60
2019,04,06,16,38,30.80
2019,04,06,16,39,23.80
2019,04,06,16,40,33.80
2019,04,06,16,41,33.80
2019,04,06,16,42,33.80
2019,04,06,16,43,33.80
2019,04,06,16,44,26.30
2019,04,06,16,45,27.00
2019,04,06,16,46,26.90
2019,04,06,16,47,26.20
2019,04,06,16,48,23.50
2019,04,06,16,49,27.20
2019,04,06,16,50,24.60
2019,04,06,16,51,22.10
2019,04,06,16,52,26.50
2019,04,06,16,53,26.00
2019,04,06,16,54,28.50
2019,04,06,16,55,22.10
2019,04,06,16,56,25.30
2019,04,06,16,57,21.50
2019,04,06,16,58,21.60
2019,04,06,16,59,18.60
2019,04,06,17,00,21.30
2019,04,06,17,01,18.10
2019,04,06,17,02,24.00
2019,04,06,17,03,25.50
2019,04,06,17,04,12.30
2019,04,06,17,05,13.60
2019,04,06,17,06,19.90
2019,04,06,17,07,22.40
2019,04,06,17,08,18.20
2019,04,06,17,09,17.90
2019,04,06,17,10,19.70
2019,04,06,17,11,19.20
2019,04,06,17,12,20.40
2019,04,06,17,13,20.60
2019,04,06,17,14,26.20
2019,04,06,17,15,24.70
2019,04,06,17,16,20.80
2019,04,06,17,17,17.80
2019,04,06,17,18,22.10
2019,04,06,17,19,24.20
2019,04,06,17,20,23.40
2019,04,06,17,21,22.30
2019,04,06,17,22,28.20
2019,04,06,17,23,22.50
2019,04,06,17,24,24.40
2019,04,06,17,25,16.90
2019,04,06,17,26,22.90
2019,04,06,17,27,18.80
2019,04,06,17,28,21.40